Verona, Italy

1:21 PM CEST on September 21, 2017 (GMT +0200)
Villafranca Mil

Weather History for LIPX - July, 2013

Change the Weather History Date:

Wednesday, July 10, 2013

  Actual Average Record
Temperature  
Mean Temperature 80 °F -  
Max Temperature 91 °F 84 °F 93 °F (2006)
Min Temperature 70 °F 64 °F 55 °F (1996)
Cooling Degree Days 16    
Growing Degree Days 30 (Base 50)    
Moisture  
Dew Point 65 °F    
Average Humidity 61    
Maximum Humidity 88    
Minimum Humidity 26    
Precipitation  
Precipitation 0.00 in 0.09 in - ()
Sea Level Pressure  
Sea Level Pressure 29.97 in    
Wind  
Wind Speed 4 mph ()    
Max Wind Speed 9 mph    
Max Gust Speed -    
Visibility 6.4 miles    
Events      
Averages and records for this station are not official NWS values.
T = Trace of Precipitation, MM = Missing Value Source: Averaged Metar Reports

Daily Weather History Graph

Daily Weather History Graph

Search for Another Location

Airport or City:

Trip Planner

Search our weather history database for the weather conditions in past years. The results will help you decide how hot, cold, wet, or windy it might be!

Date:

Astronomy

Jul. 10, 2013 Rise Set
Actual Time 5:38 AM CEST 9:04 PM CEST
Civil Twilight 5:01 AM CEST 9:41 PM CEST
Nautical Twilight 4:13 AM CEST 10:30 PM CEST
Astronomical Twilight 3:10 AM CEST 11:31 PM CEST
Moon 7:51 AM CEST (7/10) 9:55 PM CEST (7/10)
Length of Visible Light 16h 40m
Length of Day
15h 26m
Waxing Crescent, 4% of the Moon is Illuminated
Jul 10
Waxing Crescent
Jul 16
First Quarter
Jul 22
Full
Jul 29
Last Quarter
Aug 6
New

Hourly Weather History & Observations

Time (CEST) Temp. Heat Index Dew Point Humidity Pressure Visibility Wind Dir Wind Speed Gust Speed Precip Events Conditions
12:15 AM 77.0 °F - 69.8 °F 78% 30.04 in - NNW 5.8 mph - N/A   Clear
12:45 AM 77.0 °F - 68.0 °F 74% 30.04 in - NNW 4.6 mph - N/A   Clear
1:15 AM 77.0 °F - 69.8 °F 78% 30.04 in - NNW 4.6 mph - N/A   Clear
1:45 AM 75.2 °F - 68.0 °F 78% 30.04 in - NNW 6.9 mph - N/A   Clear
2:00 AM 76 °F - 68 °F 69% 30.03 in 6 mi NNW 6.9 mph - -  
2:15 AM 75.2 °F - 68.0 °F 78% 30.04 in - NNW 5.8 mph - N/A   Clear
4:15 AM 73.4 °F - 66.2 °F 78% 30.01 in - NW 3.5 mph - N/A   Clear
4:45 AM 73.4 °F - 64.4 °F 73% 30.01 in - Calm Calm - N/A   Clear
5:00 AM 73 °F - 65 °F 69% 30.01 in 6 mi Calm Calm - -  
5:15 AM 71.6 °F - 66.2 °F 83% 30.01 in - North 1.2 mph - N/A   Clear
5:45 AM 71.6 °F - 66.2 °F 83% 30.01 in - NE 3.5 mph - N/A   Clear
6:15 AM 71.6 °F - 66.2 °F 83% 30.01 in - Calm Calm - N/A   Clear
6:45 AM 73.4 °F - 66.2 °F 78% 30.01 in - NNW 2.3 mph - N/A   Clear
7:15 AM 71.6 °F - 68.0 °F 88% 30.01 in - West 4.6 mph - N/A   Clear
7:45 AM 73.4 °F - 68.0 °F 83% 30.01 in - WNW 3.5 mph - N/A   Clear
8:00 AM 73 °F - 67 °F 77% 30.00 in 6 mi WNW 3.5 mph - -   Scattered Clouds
8:15 AM 75.2 °F - 68.0 °F 78% 30.01 in - WNW 3.5 mph - N/A   Clear
8:45 AM 77.0 °F - 69.8 °F 78% 30.01 in - West 3.5 mph - N/A   Clear
9:15 AM 78.8 °F - 69.8 °F 74% 30.01 in - West 4.6 mph - N/A   Clear
9:45 AM 80.6 °F 83.9 °F 69.8 °F 70% 30.01 in - WNW 8.1 mph - N/A   Clear
10:15 AM 80.6 °F 83.9 °F 69.8 °F 70% 30.01 in - NW 6.9 mph - N/A   Clear
10:45 AM 80.6 °F 83.2 °F 68.0 °F 65% 30.01 in - NW 5.8 mph - N/A   Clear
11:00 AM 81 °F - 68 °F 57% 30.01 in 6 mi NW 5.8 mph - -   Partly Cloudy
11:15 AM 82.4 °F 84.6 °F 66.2 °F 58% 30.01 in - NW 4.6 mph - N/A   Clear
11:45 AM 84.2 °F 85.6 °F 64.4 °F 51% 30.01 in - SW 1.2 mph - N/A   Clear
12:15 PM 86.0 °F 87.3 °F 64.4 °F 48% 30.01 in - SW 3.5 mph - N/A   Clear
12:45 PM 86.0 °F 87.3 °F 64.4 °F 48% 30.01 in - West 2.3 mph - N/A   Clear
1:15 PM 86.0 °F 87.3 °F 64.4 °F 48% 29.98 in 6.2 mi West 3.5 mph - N/A   Partly Cloudy
1:45 PM 86.0 °F 87.3 °F 64.4 °F 48% 29.98 in 6.2 mi SW 2.3 mph - N/A   Partly Cloudy
2:00 PM 86 °F - 65 °F 39% 29.97 in 7 mi SW 2.3 mph - -   Partly Cloudy
2:15 PM 86.0 °F 86.6 °F 62.6 °F 45% 29.95 in 6.2 mi SW 4.6 mph - N/A   Partly Cloudy
2:45 PM 87.8 °F 87.6 °F 60.8 °F 40% 29.95 in 6.2 mi SSW 4.6 mph - N/A   Partly Cloudy
3:15 PM 89.6 °F 89.5 °F 60.8 °F 38% 29.95 in 6.2 mi SSE 3.5 mph - N/A   Partly Cloudy
3:45 PM 89.6 °F 89.5 °F 60.8 °F 38% 29.92 in 6.2 mi South 2.3 mph - N/A   Partly Cloudy
4:15 PM 89.6 °F 89.5 °F 60.8 °F 38% 29.92 in 6.2 mi West 3.5 mph - N/A   Scattered Clouds
4:45 PM 89.6 °F 88.9 °F 59.0 °F 36% 29.92 in 6.2 mi West 3.5 mph - N/A   Scattered Clouds
5:00 PM 89 °F - 59 °F 26% 29.92 in 9 mi West 3.5 mph - -   Partly Cloudy
5:15 PM 89.6 °F 88.9 °F 59.0 °F 36% 29.92 in 6.2 mi West 9.2 mph - N/A   Scattered Clouds
5:45 PM 89.6 °F 88.9 °F 59.0 °F 36% 29.89 in 6.2 mi West 8.1 mph - N/A   Partly Cloudy
6:15 PM 89.6 °F 88.9 °F 59.0 °F 36% 29.89 in 6.2 mi WNW 5.8 mph - N/A   Scattered Clouds
6:45 PM 89.6 °F 88.9 °F 59.0 °F 36% 29.89 in 6.2 mi NNW 3.5 mph - N/A   Scattered Clouds
7:15 PM 87.8 °F 87.6 °F 60.8 °F 40% 29.89 in 6.2 mi SSW 2.3 mph - N/A   Partly Cloudy
7:45 PM 86.0 °F 87.3 °F 64.4 °F 48% 29.89 in - West 3.5 mph - N/A   Clear
8:00 PM 87 °F - 65 °F 38% 29.88 in 7 mi West 3.5 mph - -   Partly Cloudy
8:15 PM 84.2 °F 87.3 °F 68.0 °F 58% 29.89 in - West 2.3 mph - N/A   Clear
8:45 PM 82.4 °F 85.4 °F 68.0 °F 62% 29.89 in - West 5.8 mph - N/A   Clear
9:15 PM 80.6 °F 82.7 °F 66.2 °F 61% 29.89 in - WNW 4.6 mph - N/A   Clear
9:45 PM 78.8 °F - 66.2 °F 65% 29.89 in - WNW 2.3 mph - N/A   Clear
10:15 PM 78.8 °F - 66.2 °F 65% 29.89 in - NW 3.5 mph - N/A   Clear
10:45 PM 77.0 °F - 68.0 °F 74% 29.89 in - NNW 3.5 mph - N/A   Clear
11:00 PM 76 °F - 69 °F 72% 29.91 in 6 mi WNW 4.6 mph - -   Scattered Clouds
11:15 PM 77.0 °F - 68.0 °F 74% 29.92 in - NW 2.3 mph - N/A   Clear
11:45 PM 77.0 °F - 68.0 °F 74% 29.92 in - NW 3.5 mph - N/A   Clear